Wind_Speed
8 7 8 8 10 9 11 14 16 17 19 21 21 21 21 20 18 17 14 14 13 13 13 13 13 13 13 14 15 16 13 11 17 13 10 17 23 28 35 31 37 38 37 33 37
8 8 9 9 9 10 11 10 13 17 18 17 19 20 19 19 16 16 16 14 13 11 10 10 12 13 14 15 14 15 13 12 19 14 6 21 16 19 23 33 39 42 41 34 31
8 8 8 9 9 10 11 12 11 12 14 17 18 18 19 17 13 15 17 16 15 12 11 11 10 12 14 14 15 15 13 14 17 20 11 19 26 22 16 29 41 48 41 33 23
8 7 7 8 9 10 11 11 12 12 11 13 15 16 17 16 16 14 15 16 16 14 13 12 13 14 15 16 18 18 17 17 15 20 22 28 30 27 21 26 50 51 34 32 32
9 8 7 7 8 9 9 11 12 12 12 12 12 13 13 13 18 18 17 17 18 18 18 16 16 16 18 18 18 17 15 14 17 23 24 26 23 20 34 44 47 40 37 34 35
11 10 9 8 7 7 8 9 11 12 12 12 12 11 10 6 10 13 16 16 15 14 15 16 17 15 14 14 16 16 16 17 15 17 26 27 26 22 24 32 36 36 37 42 41
12 11 10 9 9 8 7 8 9 11 12 12 12 11 11 8 10 9 9 10 12 11 11 13 12 13 14 14 15 15 15 11 12 14 19 15 19 20 28 28 37 42 37 39 40
12 12 12 11 10 9 8 7 8 9 11 12 12 12 10 12 11 12 12 11 12 12 12 12 13 13 13 13 8 6 6 8 12 10 11 9 12 22 29 29 26 27 31 34 35
12 12 12 13 12 11 9 8 8 9 9 10 11 12 11 12 11 12 12 12 12 12 13 13 12 12 11 10 7 7 4 13 8 11 17 19 14 19 27 23 24 26 29 26 26
13 14 14 13 14 13 12 11 9 9 9 9 9 10 9 8 10 11 10 11 11 12 12 12 12 11 8 4 9 4 2 3 15 11 16 18 21 21 22 25 25 28 27 26 25
11 11 12 14 15 13 13 13 11 10 11 9 10 10 9 8 9 9 9 10 10 11 11 11 9 9 15 10 13 17 14 12 12 17 22 26 24 26 33 30 29 28 26 26 29
15 13 12 11 13 13 14 13 13 12 12 10 10 10 10 8 9 8 8 9 9 10 10 11 15 13 14 17 15 8 21 21 13 11 19 24 28 32 32 34 32 27 27 28 27
19 19 17 15 12 12 14 13 14 12 13 11 11 10 11 9 8 9 10 10 11 11 12 13 10 14 13 11 14 13 16 30 25 17 20 25 29 34 36 31 32 33 34 31 33
21 20 22 21 17 14 14 14 15 15 13 10 11 12 9 10 11 9 10 10 12 12 12 9 14 18 8 12 13 15 20 21 28 29 26 25 27 35 35 36 36 33 33 36 32
22 20 19 23 21 18 15 15 15 14 13 9 10 9 10 11 10 11 9 9 11 13 12 16 17 16 15 19 15 21 20 20 19 18 25 25 29 33 36 36 40 35 30 36 37
21 19 17 20 24 22 22 18 16 13 13 12 7 10 10 10 10 7 9 10 9 10 8 21 20 15 19 18 17 16 19 18 22 22 22 5 13 28 36 39 34 35 34 33 44
20 18 16 19 22 21 22 21 17 13 8 13 10 10 10 10 11 9 11 10 12 11 13 14 12 17 17 19 19 22 22 21 21 14 12 18 24 26 28 32 26 28 38 40 44
20 19 15 15 20 23 23 22 18 14 10 4 14 12 11 11 11 12 12 12 12 13 11 13 6 21 19 11 9 12 17 19 22 18 22 18 20 27 29 27 36 33 36 44 41
21 20 15 12 16 23 23 21 15 21 17 18 10 13 12 9 9 12 12 7 14 15 14 15 14 17 26 24 24 18 17 24 26 23 21 22 25 30 31 37 37 37 40 41 48
23 22 19 15 14 18 20 17 23 31 29 24 20 17 12 8 15 19 19 11 18 22 14 14 23 26 27 24 18 20 17 19 27 26 23 19 25 33 32 31 34 40 43 44 44
26 25 24 21 18 15 14 17 25 29 30 29 23 20 24 19 15 22 21 14 23 27 17 19 21 24 28 30 28 22 19 19 22 27 28 25 28 37 35 36 37 41 42 43 40
27 25 25 24 22 19 16 20 28 30 32 25 31 31 24 27 27 29 25 26 30 31 25 22 21 19 20 22 28 24 24 27 29 27 26 30 34 35 38 39 40 43 39 35 41
25 25 26 26 23 25 26 27 29 31 27 16 23 30 30 29 32 31 21 25 32 32 36 30 31 27 20 20 26 25 21 21 20 22 21 24 25 31 33 36 41 44 44 42 44
26 27 28 27 27 25 25 27 29 28 25 27 27 29 30 35 35 32 39 34 33 36 37 36 34 31 26 21 24 25 25 28 29 24 21 20 24 31 34 36 39 37 36 39 42
31 33 25 26 30 29 28 26 27 25 24 26 25 26 29 35 34 32 40 40 41 39 37 31 28 26 25 23 22 25 29 26 29 27 27 26 29 34 37 37 36 36 37 38 41
31 29 26 26 24 21 22 23 25 23 25 21 26 26 29 30 30 24 35 33 31 26 19 15 21 23 21 21 24 24 24 22 22 23 28 27 32 35 35 35 35 36 40 40 42
30 31 32 31 29 27 26 25 24 26 26 28 23 30 30 33 31 32 34 35 34 33 29 25 21 24 22 23 25 24 25 19 19 26 29 30 30 31 32 34 35 35 35 37 38
Wind_Direction
292 283 266 258 252 253 249 245 242 242 243 242 244 246 249 252 248 242 235 239 244 244 243 241 239 229 222 222 224 226 221 201 190 126 2 305 289 287 275 285 293 298 297 287 307
294 284 279 269 261 254 251 251 248 245 244 245 247 248 249 247 246 238 232 230 231 242 241 241 241 234 225 226 229 233 229 212 203 156 354 300 263 259 309 279 285 293 298 301 307
311 292 278 270 265 260 254 248 249 250 250 247 247 248 247 242 241 234 232 232 232 242 238 237 238 229 229 229 232 233 230 223 218 195 209 250 258 267 315 311 295 290 300 306 312
329 315 297 283 271 264 261 256 249 249 249 249 249 249 247 241 237 237 233 233 237 237 241 246 241 238 238 240 243 243 241 232 235 220 228 230 241 250 278 287 284 288 303 304 324
320 322 311 298 287 276 267 257 255 251 251 253 254 255 253 249 242 244 242 243 242 244 247 248 246 245 243 241 243 245 244 242 232 222 230 261 259 262 254 263 276 294 290 283 292
305 306 310 309 304 293 278 270 258 254 252 254 256 258 259 246 253 247 243 243 242 240 240 241 243 245 243 247 249 252 246 245 254 233 241 239 266 285 266 251 259 270 284 286 287
289 288 293 299 305 306 295 278 269 256 250 249 251 256 257 247 240 248 244 238 236 232 234 238 239 238 247 244 240 254 268 280 274 267 270 258 234 255 266 255 248 261 283 291 294
286 281 281 284 290 296 297 291 275 263 253 252 251 250 252 251 245 242 241 240 239 240 239 237 239 239 237 248 256 244 289 317 278 277 294 308 262 251 270 254 276 287 287 296 301
284 281 278 275 276 279 282 281 276 269 262 255 248 248 244 245 247 246 241 238 239 242 242 237 235 233 241 247 219 210 290 357 319 304 307 308 285 258 281 290 289 292 295 299 294
280 277 275 273 270 269 269 268 270 267 264 258 255 254 243 244 241 242 242 240 239 238 237 234 231 230 227 206 213 188 153 271 283 276 281 284 285 294 297 291 290 295 304 305 304
289 287 282 273 266 265 264 263 260 262 261 257 255 256 247 232 238 238 237 234 231 231 229 232 225 217 212 197 206 198 189 164 256 279 275 280 273 276 295 292 293 304 311 316 316
283 280 282 281 269 261 261 261 262 259 260 260 259 265 254 242 238 234 233 231 227 224 227 215 218 208 230 224 245 263 201 189 169 243 260 268 277 278 277 291 288 299 304 306 313
282 276 271 267 268 259 256 258 259 259 257 256 259 256 255 248 241 234 235 233 229 232 219 225 224 233 242 245 246 231 226 212 215 220 260 269 277 287 288 283 283 299 300 297 311
280 277 266 260 252 251 250 248 256 257 257 251 246 248 253 250 249 234 239 240 233 214 223 197 228 236 260 252 242 233 233 221 225 243 230 248 268 278 282 289 293 298 305 302 311
281 281 270 251 246 246 246 251 246 252 259 254 249 247 245 248 250 245 238 236 233 232 207 182 229 245 257 242 239 245 255 262 278 279 265 255 253 276 279 290 291 287 300 307 307
277 273 264 251 242 237 233 229 240 241 247 262 250 251 249 249 244 222 230 239 244 249 249 227 250 271 270 272 273 280 278 267 268 275 270 288 263 261 266 270 286 288 297 300 310
264 260 260 254 243 239 238 235 225 217 241 293 289 243 230 231 242 228 234 238 239 242 222 223 269 266 257 264 259 255 258 260 255 236 291 276 279 278 281 289 283 291 303 307 305
250 246 253 259 234 231 233 228 223 208 147 316 289 287 238 240 240 248 240 232 225 235 239 221 221 250 282 271 251 288 270 272 265 244 234 257 279 290 292 284 287 295 295 297 301
242 237 241 253 235 229 229 227 206 197 201 212 206 257 256 210 237 279 275 246 249 249 232 216 218 250 264 278 282 277 270 256 263 271 258 261 263 267 273 282 288 290 292 296 304
237 232 230 234 235 231 227 213 199 203 206 202 186 206 232 285 217 247 270 278 258 256 229 249 251 255 264 281 277 285 269 254 257 270 266 258 251 259 267 275 289 293 293 295 296
238 230 226 228 228 232 221 199 201 215 234 216 210 196 195 195 227 247 263 242 253 261 256 257 255 252 268 275 286 285 286 282 275 265 271 271 268 274 278 278 280 279 288 291 298
238 234 234 228 228 225 215 206 214 211 230 227 219 231 237 198 226 220 219 233 240 266 275 262 274 269 263 271 275 268 276 276 274 268 268 280 280 280 287 292 295 295 304 309 308
238 236 227 227 226 223 218 209 221 221 239 234 225 219 226 212 215 232 240 234 240 252 268 274 280 282 280 272 270 279 266 281 280 269 274 275 276 282 284 293 295 301 308 307 301
235 233 223 225 225 228 233 231 228 233 232 236 223 219 223 228 232 233 244 241 251 264 272 277 277 279 279 274 281 279 275 276 283 282 272 283 287 288 290 294 301 308 304 301 302
233 235 233 234 233 231 226 225 236 240 231 235 233 234 232 231 232 232 240 248 254 258 265 270 276 272 275 280 269 266 279 283 268 279 287 292 289 289 297 305 307 308 306 305 307
238 241 237 232 232 227 235 238 244 243 248 242 236 229 233 238 241 236 246 247 255 256 264 272 273 268 274 275 277 277 280 280 267 273 277 283 289 296 300 303 307 305 310 312 308
238 233 230 234 230 227 231 231 231 231 236 244 230 239 231 240 240 243 245 256 259 269 270 272 265 270 273 273 273 278 281 281 277 278 282 288 291 297 304 303 304 307 308 301 306
Height
5868 5868 5868 5868 5868 5869 5869 5870 5872 5873 5875 5876 5878 5879 5880 5882 5884 5887 5888 5890 5891 5892 5893 5895 5896 5898 5901 5902 5903 5904 5907 5911 5912 5910 5914 5917 5912 5909 5903 5899 5895 5894 5897 5901 5901
5866 5865 5865 5865 5866 5866 5867 5868 5869 5870 5871 5873 5874 5875 5876 5878 5881 5883 5885 5886 5888 5889 5890 5892 5894 5895 5897 5898 5901 5902 5905 5908 5908 5906 5909 5911 5913 5900 5895 5894 5889 5887 5893 5897 5894
5865 5864 5864 5863 5864 5864 5865 5866 5866 5867 5868 5869 5870 5871 5873 5875 5879 5879 5881 5883 5885 5887 5888 5890 5891 5893 5895 5896 5897 5899 5902 5904 5904 5903 5906 5908 5906 5906 5896 5883 5883 5882 5881 5883 5889
5864 5863 5862 5862 5862 5862 5863 5863 5864 5864 5865 5866 5867 5868 5870 5873 5877 5876 5878 5880 5882 5884 5886 5887 5889 5891 5892 5894 5894 5895 5897 5899 5901 5900 5901 5901 5901 5905 5893 5881 5876 5877 5881 5877 5880
5863 5862 5861 5861 5861 5860 5861 5861 5861 5862 5862 5863 5864 5866 5867 5870 5872 5873 5874 5876 5878 5880 5882 5884 5886 5887 5888 5889 5889 5891 5893 5894 5896 5897 5898 5897 5900 5902 5892 5883 5873 5870 5878 5880 5882
5861 5860 5859 5859 5859 5859 5858 5859 5859 5859 5860 5861 5862 5863 5865 5868 5868 5869 5871 5873 5875 5876 5878 5880 5882 5883 5884 5886 5886 5887 5887 5890 5891 5894 5894 5895 5894 5894 5885 5883 5878 5874 5872 5876 5879
5858 5858 5857 5857 5857 5857 5856 5856 5856 5856 5857 5858 5859 5860 5862 5865 5865 5866 5868 5869 5871 5873 5875 5877 5879 5880 5881 5882 5883 5884 5885 5887 5889 5889 5889 5891 5893 5889 5881 5880 5878 5876 5879 5876 5874
5855 5855 5855 5855 5855 5855 5854 5854 5854 5853 5854 5855 5856 5858 5859 5860 5862 5864 5865 5867 5869 5871 5873 5874 5875 5877 5878 5879 5882 5883 5884 5885 5884 5885 5887 5889 5889 5884 5876 5875 5878 5877 5877 5875 5874
5852 5852 5852 5852 5852 5852 5852 5852 5852 5851 5851 5852 5853 5854 5856 5857 5859 5861 5862 5864 5866 5867 5869 5870 5872 5873 5876 5878 5878 5878 5880 5879 5880 5881 5883 5882 5881 5878 5871 5874 5876 5875 5875 5874 5870
5849 5849 5849 5849 5849 5849 5849 5850 5849 5850 5850 5850 5851 5853 5854 5855 5856 5857 5859 5861 5863 5864 5866 5868 5869 5871 5874 5875 5874 5874 5876 5879 5879 5880 5881 5876 5876 5875 5872 5870 5873 5872 5872 5871 5869
5846 5845 5845 5845 5845 5846 5846 5847 5849 5849 5847 5848 5849 5850 5850 5852 5853 5855 5856 5858 5860 5862 5863 5865 5867 5869 5869 5869 5870 5872 5876 5879 5878 5877 5877 5877 5874 5873 5866 5865 5866 5866 5867 5866 5864
5843 5843 5842 5842 5842 5842 5842 5843 5844 5846 5845 5846 5846 5847 5848 5849 5851 5853 5854 5856 5857 5859 5861 5863 5863 5864 5864 5866 5868 5872 5874 5876 5876 5875 5875 5873 5874 5871 5866 5859 5859 5861 5863 5862 5859
5838 5838 5838 5838 5838 5839 5839 5840 5840 5841 5842 5843 5844 5845 5846 5847 5848 5850 5851 5853 5854 5856 5858 5859 5859 5860 5863 5865 5866 5868 5869 5873 5873 5873 5870 5868 5867 5864 5860 5856 5855 5855 5854 5853 5852
5833 5833 5832 5833 5835 5834 5835 5835 5836 5837 5838 5841 5842 5842 5842 5843 5845 5846 5847 5850 5851 5852 5853 5856 5856 5857 5860 5861 5862 5864 5862 5865 5865 5866 5867 5865 5864 5854 5853 5851 5852 5852 5849 5848 5843
5827 5826 5826 5826 5828 5830 5832 5832 5832 5833 5835 5838 5838 5838 5840 5842 5843 5843 5845 5846 5847 5848 5851 5854 5853 5854 5856 5854 5858 5857 5858 5859 5860 5860 5859 5862 5860 5852 5846 5847 5848 5845 5842 5840 5839
5820 5820 5821 5820 5821 5824 5825 5826 5829 5831 5831 5832 5835 5835 5837 5838 5839 5842 5843 5844 5846 5847 5849 5848 5849 5852 5851 5852 5854 5854 5853 5856 5856 5856 5854 5857 5855 5847 5843 5841 5840 5836 5836 5834 5831
5814 5815 5815 5814 5816 5818 5821 5823 5826 5827 5829 5829 5831 5833 5834 5835 5836 5838 5840 5841 5843 5844 5845 5846 5847 5845 5848 5848 5848 5847 5848 5848 5849 5848 5848 5846 5844 5843 5840 5835 5834 5831 5828 5824 5824
5807 5809 5810 5809 5810 5812 5815 5818 5823 5825 5828 5828 5827 5829 5831 5832 5833 5834 5836 5837 5839 5839 5841 5842 5842 5839 5840 5843 5845 5844 5843 5842 5839 5842 5842 5841 5838 5836 5834 5831 5827 5826 5823 5820 5817
5801 5803 5805 5804 5805 5807 5809 5814 5820 5821 5821 5824 5826 5827 5828 5830 5833 5832 5833 5835 5833 5835 5839 5840 5838 5838 5836 5838 5839 5838 5838 5837 5835 5836 5837 5836 5835 5830 5828 5825 5823 5822 5818 5814 5810
5794 5797 5799 5800 5801 5802 5804 5810 5812 5811 5812 5819 5820 5826 5828 5829 5831 5831 5831 5833 5830 5830 5835 5836 5836 5834 5832 5832 5835 5833 5834 5834 5831 5829 5830 5829 5827 5822 5823 5821 5820 5816 5812 5810 5806
5787 5790 5793 5795 5796 5799 5801 5805 5807 5808 5810 5814 5817 5817 5820 5825 5829 5828 5829 5829 5824 5824 5829 5830 5831 5834 5831 5828 5829 5827 5828 5828 5827 5826 5823 5823 5821 5815 5817 5817 5814 5810 5807 5805 5800
5780 5784 5785 5788 5792 5793 5797 5799 5801 5799 5799 5806 5812 5814 5817 5819 5816 5822 5820 5819 5821 5819 5823 5824 5825 5827 5829 5827 5822 5824 5822 5821 5819 5820 5820 5817 5813 5811 5807 5802 5800 5797 5796 5793 5788
5773 5775 5779 5781 5785 5786 5787 5790 5792 5793 5795 5801 5803 5807 5810 5813 5814 5812 5812 5815 5814 5815 5815 5818 5817 5819 5822 5823 5818 5817 5817 5816 5814 5813 5815 5812 5809 5803 5801 5797 5792 5788 5787 5785 5781
5766 5766 5770 5773 5776 5780 5783 5786 5786 5787 5790 5792 5795 5799 5803 5805 5807 5810 5806 5810 5809 5810 5811 5811 5811 5812 5813 5816 5812 5811 5812 5809 5808 5808 5807 5807 5802 5797 5795 5794 5791 5788 5783 5779 5773
5756 5758 5766 5767 5769 5773 5774 5778 5779 5781 5784 5785 5788 5793 5795 5796 5799 5803 5799 5802 5802 5803 5804 5805 5805 5806 5806 5807 5807 5806 5804 5804 5803 5801 5800 5799 5795 5792 5789 5787 5783 5780 5777 5772 5766
5750 5756 5760 5760 5763 5767 5768 5773 5775 5776 5778 5779 5781 5784 5786 5788 5791 5795 5792 5794 5793 5797 5799 5801 5800 5800 5801 5800 5799 5798 5798 5798 5797 5798 5795 5793 5789 5787 5784 5781 5778 5773 5767 5762 5756
5742 5745 5747 5750 5754 5758 5762 5764 5767 5769 5771 5773 5774 5775 5778 5778 5782 5784 5785 5786 5790 5791 5792 5793 5795 5794 5795 5793 5792 5793 5792 5793 5793 5790 5788 5786 5784 5782 5779 5775 5772 5768 5763 5756 5752